Location: Eitze
(52.9840°N, 9.6894°E)
Time: 16:37:03
(UTC+00:00)

Cosmos 1633 Rocket - Pass Details

Date: 19 May 2025
Orbit: 600 x 618 km, 82.5° (Epoch: 17 June)

Event Time Altitude Azimuth Distance (km) Brightness Sun altitude
Rises 22:51:59 0° 354° (N) 2,887 8.3 -16.8°
Reaches altitude 10° 22:54:22 10° 2° (N) 1,975 6.9 -16.9°
Maximum altitude 22:58:26 37° 71° (ENE) 949 4.1 -16.9°
Enters shadow 23:00:50 21° 127° (SE) 1,393 4.5 -16.9°
